Home > Time Zones > World Clock > Weather > India > Moga > Past weeks

Flag for India Weather past 2 weeks in Moga, Punjab, India

Now
68 °F

Fog.


Feels Like: 68 °F
Forecast: 66 / 93 °F
Wind: No wind

Location: Amritsar Airport

Current Time: Oct 22, 2014 at 9:03:26 AM

Latest Report: Oct 22, 2014 at 8:00 AM


Visibility: 1 mi

Pressure: 30.07 "Hg

Humidity: 94%

Dew point: 66 °F

Location of MogaLocation

Historic Weather in Moga — Graph

°F

Moga temperature yesterday

Maximum temperature yesterday: 88 °F (at 2:00 PM)
Minimum temperature yesterday: 63 °F (at 6:00 AM)
Average temperature yesterday: 74 °F

Past Weeks' High & Low Weather Summary

 TemperatureHumidityPressure
High91 °F (Oct 7, 12:00 PM)100% (Oct 7, 8:00 AM)30.09 "Hg (Oct 7, 8:00 AM)
Low57 °F (Oct 15, 7:00 AM)35% (Oct 12, 4:00 PM)29.77 "Hg (Oct 7, 3:30 PM)
Average73 °F76%29.92 "Hg
* Reported Oct 7 8:00 AM — Oct 22 7:30 AM, Moga, Weather by CustomWeather, © 2014

Note: Actual official high and low records may vary slightly from our data, if they occured in-between our weather recording intervals... More about our weather records

Advertising

Moga weather history for previous 24 hours

 ConditionsComfort  
Time TempWeatherWind HumidityBarometerVisibility
7:30 AM
Oct 22
64 °FFog.No wind100%30.07 "Hg1 mi
7:00 AM64 °FFog.No wind100%30.04 "Hg1 mi
6:00 AM63 °FFog.No wind100%30.04 "Hg1 mi
5:30 AM64 °FFog.No wind100%30.01 "Hg1 mi
5:00 AM64 °FFog.No wind100%30.01 "Hg1 mi
4:30 AM64 °FFog.5 mph94%30.01 "Hg1 mi
4:00 AM64 °FFog.1 mph94%30.01 "Hg1 mi
3:30 AM64 °FFog.No wind94%30.01 "Hg1 mi
3:00 AM66 °FFog.No wind88%30.01 "Hg1 mi
2:30 AM66 °FFog.No wind88%30.01 "Hg1 mi
2:00 AM66 °FFog.No wind88%30.01 "Hg1 mi
1:30 AM66 °FFog.No wind94%30.01 "Hg1 mi
1:00 AM66 °FFog.No wind94%30.01 "Hg1 mi
12:30 AM66 °FFog.No wind94%30.01 "Hg2 mi
12:00 AM66 °FFog.No wind94%30.01 "Hg2 mi
11:30 PM
Oct 21
68 °FFog.No wind88%30.01 "Hg2 mi
11:00 PM70 °FFog.No wind83%30.01 "Hg2 mi
10:30 PM70 °FFog.No wind83%30.01 "Hg2 mi
10:00 PM72 °FFog.No wind78%30.01 "Hg2 mi
9:30 PM72 °FFog.No wind78%30.01 "Hg2 mi
9:00 PM72 °FFog.No wind78%30.01 "Hg2 mi
8:30 PM72 °FFog.No wind78%30.01 "Hg2 mi
8:00 PM73 °FFog.No wind69%29.98 "Hg2 mi
7:30 PM73 °FFog.No wind74%29.98 "Hg2 mi
7:00 PM75 °FHaze.No wind69%29.98 "Hg2 mi
6:30 PM77 °FClear.No wind65%29.98 "Hg2 mi
6:00 PM81 °FClear.No wind51%29.95 "Hg3 mi
5:30 PM84 °FClear.No wind43%29.95 "Hg3 mi
5:00 PM84 °FClear.3 mph43%29.95 "Hg4 mi
4:30 PM86 °FClear.3 mph40%29.95 "Hg4 mi
4:00 PM86 °FClear.5 mph38%29.95 "Hg4 mi
3:30 PM88 °FClear.2 mph35%29.95 "Hg4 mi
3:00 PM88 °FClear.3 mph35%29.95 "Hg4 mi
2:00 PM88 °FClear.2 mph38%29.98 "Hg4 mi
1:30 PM86 °FClear.7 mph38%29.98 "Hg4 mi
1:00 PM86 °FClear.5 mph38%30.01 "Hg4 mi
12:30 PM86 °FClear.5 mph40%30.01 "Hg4 mi
12:00 PM86 °FClear.2 mph40%30.04 "Hg4 mi
11:30 AM84 °FClear.3 mph40%30.04 "Hg4 mi
11:00 AM84 °FHaze.2 mph43%30.04 "Hg4 mi
10:00 AM81 °FHaze.No wind54%30.04 "Hg2 mi
9:00 AM75 °FFog.No wind69%30.04 "Hg1 mi
Weather by CustomWeather, © 2014

See weather overviewHow to use our weather pages